BEIDOU-3 G2

Last updated on Sat Aug 15 2026 00:03:02 GMT+0000 (Coordinated Universal Time)

1 45344U 20017A 26226.15606627 -.00000156 00000+0 00000+0 0 9992 2 45344 2.9798 48.0954 0001500 93.3681 317.3451 1.00271868 23847
UTC large
Height (km)
Speed (km/s)
/
Latitude / Longitude
Inclination (degrees)
Orbital Period (minutes)
Azimuth
Elevation
Range (km)
Doppler Factor

Next 0 passes for location: London (51.5072 / 0.1276)

No passes found over London.
BEIDOU-3 G2